Wind_Speed
5 4 4 8 9 10 10 11 11 12 14 14 14 12 14 15 11 4 3 3 5 9 9 13 11 9 5 3 1 3 5 3 3 2 4 4 3 5 4 8 5 3 3 1 7
5 4 4 6 7 9 9 10 11 13 14 13 12 10 14 14 8 6 4 5 6 8 5 9 7 10 2 1 1 4 4 1 2 2 3 3 6 2 4 4 5 4 6 10 16
8 6 5 6 7 8 9 10 11 13 13 12 10 10 12 11 3 3 1 3 6 5 6 9 10 2 2 1 1 2 4 4 3 4 5 3 3 3 6 2 2 6 3 6 14
8 8 7 7 7 8 9 11 11 12 12 10 8 10 10 3 4 2 2 2 1 5 9 5 3 2 1 3 2 5 4 4 3 2 2 1 6 4 3 2 7 5 4 7 9
7 8 8 8 8 9 10 11 12 12 9 9 6 9 3 2 3 2 2 3 2 7 6 3 3 2 1 4 2 4 4 5 4 4 4 6 3 6 5 5 6 3 9 8 8
8 9 9 9 9 10 11 11 12 11 7 7 4 7 2 2 5 1 4 2 3 4 5 6 3 2 2 3 4 3 6 7 4 4 2 4 3 2 6 7 6 6 7 7 8
11 11 9 9 10 10 10 11 10 8 7 4 3 3 3 5 2 2 3 3 4 6 1 4 6 4 2 4 1 6 4 3 6 6 5 6 1 8 8 9 9 8 7 7 7
13 13 11 10 10 10 9 10 8 6 8 2 3 1 4 4 4 2 2 1 3 2 2 2 4 1 4 3 1 3 4 3 6 9 3 6 7 4 10 10 9 9 8 8 6
10 10 11 10 9 7 8 8 6 7 7 2 2 3 3 5 3 3 1 3 2 2 1 2 1 2 3 4 4 2 4 6 2 8 5 5 5 5 9 10 10 9 9 8 7
10 10 10 7 6 7 7 5 4 7 4 3 6 2 4 3 5 4 2 2 2 1 0 0 3 3 3 4 4 3 3 2 5 7 6 7 10 7 12 10 10 9 9 9 9
10 8 7 7 6 5 3 2 1 0 4 4 5 3 5 6 5 3 1 2 2 0 2 2 4 4 5 6 5 2 1 4 2 3 5 8 8 10 12 8 9 9 10 9 10
8 7 7 6 4 5 5 3 1 2 3 5 0 5 5 3 3 3 4 0 2 2 2 4 2 3 3 3 3 3 3 6 3 2 1 6 13 11 14 15 13 10 9 10 7
9 8 7 7 5 7 10 5 1 4 5 1 1 4 1 2 3 2 4 4 2 2 3 5 1 2 1 1 2 3 1 3 2 2 4 3 8 5 2 5 7 6 7 7 13
9 9 9 6 4 7 4 2 4 3 4 2 2 1 2 0 3 1 3 2 2 2 2 1 2 2 1 2 1 2 1 2 4 5 3 3 5 6 4 6 8 8 7 8 9
9 8 8 13 7 1 2 2 2 2 4 4 3 2 4 3 6 2 1 1 1 3 5 5 3 2 2 1 2 3 1 1 1 1 4 3 1 7 7 4 8 9 9 8 9
7 8 10 6 6 4 3 1 1 5 2 3 4 4 4 3 4 3 1 1 0 2 2 4 2 2 2 2 3 3 2 3 2 2 2 6 7 5 4 7 5 6 9 9 8
8 10 9 4 3 5 1 2 4 3 4 4 4 5 6 5 5 5 3 1 2 2 1 3 2 2 2 1 2 3 5 3 2 2 5 3 5 7 2 3 5 13 11 10 9
10 7 3 7 5 1 2 4 2 4 3 2 4 5 3 4 2 3 0 1 5 2 1 4 2 2 1 1 3 4 6 4 4 3 4 5 5 3 2 5 7 7 9 8 7
8 5 4 3 2 1 5 3 3 2 2 4 2 3 3 3 4 2 2 2 2 5 4 3 2 1 4 2 2 1 2 4 1 2 1 4 1 3 4 4 6 8 8 7 8
2 3 3 2 2 2 4 2 2 3 4 1 1 5 3 4 3 5 3 3 3 2 1 1 0 2 1 2 1 2 2 2 2 2 4 5 1 2 4 4 4 6 7 7 6
3 2 2 4 2 4 2 2 3 3 5 4 3 2 2 4 3 2 2 3 5 0 1 2 3 2 2 4 5 1 2 2 2 5 4 1 5 5 1 1 4 2 5 8 9
2 1 3 5 3 1 2 2 2 2 2 3 3 3 3 3 1 3 4 3 5 3 2 0 3 3 5 1 1 1 3 4 4 4 1 4 5 2 8 7 7 5 4 3 5
1 3 2 1 2 1 2 3 4 2 2 1 2 3 3 3 2 3 5 2 4 4 1 2 1 2 4 4 2 1 3 3 4 3 4 4 5 3 4 4 1 2 5 6 4
2 2 3 3 2 3 4 3 3 3 2 3 3 2 1 2 3 2 3 1 1 2 0 2 1 5 5 3 3 2 3 1 4 3 3 6 4 7 5 3 4 2 2 2 2
1 3 5 2 4 3 2 5 4 3 1 1 1 2 1 3 3 4 3 2 1 2 1 3 2 2 4 6 4 5 7 7 7 6 4 4 7 7 5 2 1 1 5 4 5
1 2 3 1 3 5 3 2 5 4 3 2 0 4 2 3 1 3 4 4 4 2 2 1 2 3 4 4 3 5 9 8 6 6 8 7 8 2 2 3 7 6 5 6 7
1 2 4 4 2 4 2 1 4 8 2 3 3 3 5 3 3 3 3 3 4 6 4 4 2 3 4 6 6 6 3 2 4 3 2 2 4 4 6 7 5 7 7 8 4
Wind_Direction
253 265 229 223 220 227 243 260 272 282 290 298 297 300 300 316 312 273 233 249 288 314 314 322 312 281 276 270 201 78 57 23 36 106 157 82 95 30 77 97 48 73 112 237 12
246 239 218 210 220 232 246 257 267 282 287 292 294 300 302 326 322 267 249 291 317 312 318 347 343 353 336 242 345 83 94 111 358 53 116 90 106 118 107 83 50 65 30 51 53
233 238 231 234 237 244 251 262 272 281 282 287 293 300 301 325 284 179 267 304 312 334 294 301 289 274 299 103 71 53 153 150 31 55 43 102 90 69 127 92 158 135 118 62 62
217 230 235 242 248 253 260 269 274 278 276 281 294 300 299 296 166 151 47 357 301 313 294 277 284 263 203 150 115 93 80 151 132 68 6 44 121 73 67 141 140 107 102 94 75
226 232 238 246 254 260 268 273 272 271 271 274 306 307 306 245 238 67 64 67 16 336 274 345 4 261 9 125 79 110 158 96 107 92 92 82 57 137 133 137 126 124 85 98 96
242 244 244 250 259 265 270 273 268 262 262 267 313 307 293 226 144 96 105 70 43 346 16 33 3 296 240 84 96 130 148 139 151 134 89 114 136 94 200 169 162 136 107 91 101
244 249 250 254 262 266 270 267 261 253 255 257 308 300 273 254 164 156 94 86 54 23 98 15 353 34 334 96 72 127 116 158 194 177 184 128 196 231 174 162 174 156 140 117 109
247 249 250 252 260 266 267 258 248 249 247 221 265 196 246 190 144 93 168 162 72 30 65 357 345 327 75 151 35 166 125 167 230 169 217 119 262 194 160 160 185 169 154 157 158
239 245 247 248 258 258 252 247 247 248 231 158 226 184 264 153 143 116 102 105 182 200 360 318 8 103 40 94 18 329 230 210 355 183 149 165 254 188 177 172 192 174 170 166 147
237 239 239 241 236 237 237 246 253 245 172 154 255 293 249 168 142 156 91 131 281 244 261 117 54 74 31 87 216 219 239 291 194 217 166 200 253 196 193 180 195 170 180 171 160
226 222 212 215 220 231 258 240 269 78 207 193 220 162 115 121 132 129 153 237 238 270 115 283 74 205 234 214 206 186 241 275 230 239 163 227 248 220 205 188 191 196 180 178 178
208 192 194 191 201 228 246 236 68 142 126 254 15 60 102 183 114 75 353 196 181 222 160 31 228 214 118 66 46 16 338 295 28 113 133 257 257 249 188 198 191 185 177 185 151
187 181 180 187 202 240 220 290 83 42 117 244 194 126 162 36 75 14 36 333 222 275 211 157 210 136 81 40 354 14 26 316 233 294 280 312 298 301 185 137 164 193 186 180 164
184 182 187 185 221 230 228 88 76 30 94 211 272 167 134 335 59 31 10 119 311 206 13 172 152 105 134 241 297 260 15 36 2 43 246 51 282 308 168 152 175 194 187 186 168
189 187 192 198 303 179 25 103 359 71 102 178 117 159 148 122 146 295 329 357 8 338 76 248 149 151 191 244 4 185 62 9 342 324 1 287 166 275 92 176 204 207 202 205 187
186 195 200 234 290 345 315 315 61 47 147 144 132 173 140 205 150 157 248 232 133 358 224 214 171 84 130 92 72 157 341 357 51 78 353 239 165 274 205 202 201 201 200 195 181
187 191 199 292 291 325 360 52 53 124 151 150 194 159 202 182 150 158 175 209 138 60 318 160 179 72 91 99 16 79 61 348 352 2 229 323 120 252 201 66 202 192 194 191 182
167 193 255 271 289 343 20 61 101 100 104 127 143 170 169 129 90 135 359 151 38 58 324 156 307 13 52 110 172 193 155 155 236 215 261 326 243 284 12 25 15 180 177 166 172
172 218 249 253 278 89 73 76 188 19 349 122 51 170 211 90 103 138 163 101 51 32 174 34 322 336 61 1 107 273 179 174 169 270 99 238 110 335 43 29 56 78 93 133 163
200 236 209 244 162 66 74 225 109 24 345 306 162 181 147 143 145 170 138 308 124 61 67 179 310 211 225 27 287 162 251 61 12 258 283 309 31 253 260 215 114 110 142 176 185
289 60 191 158 137 54 145 186 123 41 27 38 37 56 109 151 154 224 87 18 15 149 11 329 101 279 65 198 193 109 282 208 143 157 184 258 279 297 129 279 176 212 234 214 201
305 46 157 162 61 214 159 51 320 71 350 46 42 29 57 41 55 82 117 49 352 347 44 301 146 234 234 189 91 189 196 150 126 276 234 144 272 336 120 110 126 152 160 146 181
214 184 145 193 126 3 223 75 66 42 57 37 90 57 16 46 118 67 84 5 24 39 106 337 287 6 338 354 342 152 240 196 127 87 224 124 261 230 99 90 269 203 12 12 347
64 64 332 52 210 170 170 152 111 21 71 41 114 48 72 106 59 123 105 117 20 55 207 59 248 166 194 192 196 269 231 230 138 124 212 222 259 287 354 103 47 75 160 132 74
67 236 190 219 292 206 92 141 124 128 347 335 38 197 187 151 129 147 118 133 293 194 291 111 214 329 271 267 238 246 256 249 217 219 223 235 272 270 253 143 154 110 46 14 311
146 103 355 264 336 103 67 215 131 110 130 217 107 183 76 85 110 145 146 165 191 213 221 48 264 16 297 338 23 274 271 262 244 255 262 265 278 332 32 26 20 6 343 313 299
243 104 103 280 299 93 218 146 129 121 6 78 105 108 108 146 123 120 84 113 141 159 190 141 110 58 275 351 339 324 261 178 206 178 224 282 259 346 23 32 355 329 324 311 1
Height
803 803 803 805 806 808 809 809 809 809 808 807 806 804 803 800 797 797 796 795 794 793 791 788 785 785 786 786 784 787 823 835 824 819 817 804 810 807 811 819 819 820 822 821 819
802 803 803 804 806 806 807 808 808 808 807 806 804 803 802 800 797 795 794 793 793 792 791 788 787 785 790 787 789 802 830 819 807 807 810 808 811 814 819 823 829 825 821 820 818
801 802 803 804 804 805 805 806 806 806 805 804 803 803 802 800 798 793 792 792 792 791 791 789 787 788 791 787 791 798 822 806 808 805 805 809 813 812 823 830 826 828 824 822 821
800 801 802 803 803 803 803 804 803 804 803 803 802 802 801 800 807 791 791 791 791 791 790 787 787 792 795 800 789 810 803 801 804 804 805 809 812 821 824 825 822 821 822 823 824
799 799 800 801 801 801 802 802 802 802 801 802 801 802 800 800 793 790 790 791 790 790 789 787 790 790 800 796 794 806 805 803 803 804 807 808 818 823 827 823 821 822 823 826 826
797 798 799 799 799 800 800 799 800 800 800 801 800 801 801 801 790 790 790 790 790 790 789 788 790 788 794 797 802 798 803 807 806 808 808 817 821 818 826 822 824 824 826 827 828
796 797 797 797 797 797 797 798 798 799 799 800 800 800 801 795 790 789 790 790 790 789 789 789 788 790 790 800 793 800 813 812 812 811 813 814 828 823 818 821 825 827 828 828 829
794 794 795 795 795 795 795 796 796 797 799 798 799 800 798 789 789 789 789 790 790 790 789 789 788 789 793 793 799 809 814 834 811 811 810 816 833 816 817 821 826 828 829 828 829
792 792 793 793 793 793 794 795 795 796 797 797 800 800 796 789 789 789 789 789 790 790 789 789 789 795 796 813 827 820 837 831 817 809 814 819 825 817 815 818 823 827 828 827 829
790 790 791 791 792 793 793 793 794 796 795 797 799 804 791 789 787 789 789 790 790 789 791 792 798 810 815 826 845 830 826 818 823 812 814 822 822 818 813 814 818 824 826 825 828
788 788 789 791 792 792 792 793 798 798 793 791 789 786 785 787 788 789 789 789 789 791 804 797 817 825 816 811 809 811 817 823 811 801 810 818 817 812 812 814 818 819 823 823 823
787 788 789 790 791 791 793 792 785 786 794 785 783 784 784 786 791 790 789 795 795 806 799 813 822 804 799 801 806 811 818 823 813 807 814 816 813 803 804 804 806 812 818 820 822
786 788 789 790 790 792 790 787 785 784 794 789 784 786 787 787 792 794 791 792 797 803 803 816 806 796 800 806 810 812 820 822 820 813 810 814 818 802 800 803 806 809 811 814 817
786 788 789 789 795 788 788 786 785 785 811 803 793 789 787 786 798 791 792 795 796 803 801 803 799 802 806 810 809 822 813 815 817 828 843 813 849 816 806 809 810 810 812 812 816
787 788 789 791 788 786 787 785 785 786 834 798 792 786 785 793 796 796 793 794 804 805 806 813 807 808 812 811 805 818 811 816 818 830 835 829 842 823 812 815 814 812 810 810 811
787 789 790 791 788 786 785 785 786 813 821 800 792 795 797 792 795 795 795 794 795 803 801 807 798 803 809 806 807 809 814 820 823 839 858 829 832 824 815 806 806 806 806 806 809
788 789 790 790 788 786 786 786 814 823 790 804 799 794 798 800 801 799 805 809 817 821 821 809 811 807 804 814 811 814 834 856 853 860 853 812 824 813 796 793 793 799 802 803 805
789 789 789 788 787 786 786 800 814 794 797 786 790 792 801 797 798 801 805 817 811 811 826 828 833 816 808 814 822 824 832 854 846 854 840 814 825 813 801 795 793 792 796 802 806
789 789 788 786 787 787 794 817 810 797 789 793 792 802 804 799 801 803 811 820 824 821 826 832 831 814 815 813 815 821 832 823 836 833 846 829 813 806 801 797 796 800 804 807 807
788 787 785 786 786 787 803 805 803 793 792 790 801 799 807 806 809 811 813 819 823 819 819 823 831 816 817 814 815 819 821 838 847 846 843 833 818 821 807 805 802 806 807 806 806
788 790 785 786 787 795 812 803 800 794 795 796 801 797 797 803 803 807 818 823 821 820 819 820 829 825 819 825 826 830 832 828 837 847 855 856 838 805 806 804 807 806 806 805 803
788 797 785 786 800 802 804 794 798 798 795 797 797 800 804 803 804 808 820 825 825 824 823 825 835 838 825 818 815 816 819 827 851 839 846 866 847 808 808 806 806 806 803 801 801
791 791 786 786 807 809 800 800 800 800 800 801 803 804 802 807 814 812 826 827 826 827 830 830 836 847 831 828 819 820 816 816 833 851 846 865 841 808 805 804 800 801 803 806 803
791 799 794 790 793 792 797 801 808 803 803 801 805 803 806 809 810 818 828 828 828 828 827 830 835 837 848 831 826 824 815 814 827 871 844 842 825 813 811 808 807 805 805 804 804
789 794 791 803 796 789 786 794 805 810 804 803 807 806 807 813 815 817 826 831 829 828 828 833 837 828 826 825 821 821 822 821 826 829 834 821 821 814 810 807 805 804 808 807 806
790 791 790 791 785 787 793 794 800 803 807 808 809 806 805 816 817 818 817 823 826 832 829 833 838 832 834 819 819 821 820 820 821 819 822 820 820 807 807 806 810 811 808 806 804
782 782 786 794 790 796 799 792 797 803 806 804 805 808 813 819 818 818 819 821 823 829 833 836 841 851 847 835 830 833 816 811 810 809 811 818 815 810 812 812 810 809 807 805 803